Simultaneous Nadir Overpasses (SNOs) Predictions

Prediction of SNOs between AQUA and GOES-15 Satellite Orbit:

Table of predicted SNOs for the next 14.0 days since TLE Epoch: 11/26/2022
Index Date Time (AQUA) AQUA Lat,Lon GOES-15 Lat,Lon Distance(km) Time Diff (sec)
1 11/26/2022 22:09:07 0.26,-126.73 -0.05,-128.03 148.10 80
2 11/27/2022 10:30:11 0.83,-131.84 0.03,-128.09 426.54 80
3 11/28/2022 21:56:12 0.92,-123.59 -0.05,-127.97 499.64 80
4 11/29/2022 10:17:16 0.17,-128.69 0.03,-128.03 75.02 80
5 12/01/2022 10:04:21 -0.51,-125.55 0.03,-127.97 276.65 80
6 12/01/2022 22:25:34 -0.59,-130.69 -0.02,-127.89 317.98 80
7 12/03/2022 22:12:38 0.06,-127.53 -0.02,-127.83 33.89 80
8 12/05/2022 21:59:42 0.72,-124.38 -0.03,-127.77 385.48 80
9 12/06/2022 10:20:46 0.36,-129.49 0.01,-127.82 189.09 80
10 12/08/2022 10:07:50 -0.32,-126.34 0.02,-127.75 161.87 80
11 12/08/2022 22:29:01 -0.81,-131.47 -0.01,-127.66 433.05 80
